Flag for Slovakia Weather past 2 weeks in Bratislava, Slovakia

Now
64 °F

Fog.


Feels Like: 64 °F
Forecast: 69 / 93 °F
Wind: 5 mph from North

Location: Bratislava Ivanka

Current Time: Aug 29, 2015 at 5:46:30 AM

Latest Report: Aug 29, 2015 at 5:00 AM


Visibility: N/A

Pressure: 30.15 "Hg

Humidity: 94%

Dew point: 63 °F

Location of BratislavaLocation

Historic Weather in Bratislava — Graph

°F

Bratislava temperature yesterday

Maximum temperature yesterday: 88 °F (at 3:00 PM)
Minimum temperature yesterday: 63 °F (at 3:00 AM)
Average temperature yesterday: 75 °F

Past Weeks' High & Low Weather Summary

 TemperatureHumidityPressure
High95 °F (Aug 14, 1:30 PM)100% (Aug 28, 3:00 AM)30.24 "Hg (Aug 28, 3:00 AM)
Low54 °F (Aug 23, 4:00 AM)25% (Aug 14, 5:30 PM)29.71 "Hg (Aug 15, 4:00 PM)
Average70 °F69%29.98 "Hg
* Reported Aug 14 4:00 AM — Aug 29 4:30 AM, Bratislava, Weather by CustomWeather, © 2015

Note: Actual official high and low records may vary slightly from our data, if they occured in-between our weather recording intervals... More about our weather records

Advertising

Bratislava weather history for previous 24 hours

 ConditionsComfort  
Time TempWeatherWind HumidityBarometerVisibility
4:30 AM
Sat, Aug 29
66 °FFog.2 mph88%30.15 "HgN/A
4:00 AM66 °FFog.3 mph88%30.15 "HgN/A
3:30 AM66 °FFog.1 mph94%30.15 "HgN/A
3:00 AM68 °FFog.1 mph88%30.15 "HgN/A
2:30 AM68 °FFog.2 mph88%30.15 "HgN/A
2:00 AM68 °FFog.3 mph94%30.12 "HgN/A
1:30 AM68 °FFog.1 mph88%30.12 "HgN/A
1:00 AM70 °FFog.1 mph88%30.12 "HgN/A
12:30 AM70 °FClear.2 mph88%30.12 "Hg10 mi
12:00 AM70 °FClear.1 mph83%30.12 "Hg10 mi
11:30 PM
Fri, Aug 28
72 °FClear.1 mph83%30.12 "Hg10 mi
11:00 PM72 °FClear.2 mph83%30.12 "Hg10 mi
10:30 PM73 °FClear.2 mph78%30.12 "Hg10 mi
10:00 PM73 °FClear.3 mph83%30.09 "Hg10 mi
9:30 PM75 °FClear.2 mph74%30.09 "Hg10 mi
9:00 PM77 °FClear.1 mph69%30.09 "Hg10 mi
8:30 PM79 °FSunny.1 mph65%30.09 "Hg10 mi
8:00 PM82 °FSunny.2 mph58%30.09 "Hg10 mi
7:30 PM81 °FSunny.3 mph62%30.07 "Hg10 mi
7:00 PM84 °FSunny.1 mph51%30.07 "Hg10 mi
6:30 PM86 °FSunny.2 mph46%30.07 "Hg10 mi
6:00 PM86 °FSunny.2 mph49%30.07 "Hg10 mi
5:30 PM88 °FSunny.2 mph46%30.07 "Hg10 mi
5:00 PM88 °FSunny.1 mph46%30.07 "Hg10 mi
4:30 PM88 °FSunny.2 mph46%30.07 "Hg10 mi
4:00 PM86 °FSunny.2 mph46%30.07 "Hg10 mi
3:30 PM86 °FPassing clouds.3 mph49%30.07 "HgN/A
3:00 PM88 °FSunny.1 mph46%30.07 "Hg10 mi
2:30 PM86 °FSunny.3 mph52%30.07 "Hg10 mi
2:00 PM84 °FSunny.1 mph51%30.07 "Hg10 mi
1:30 PM84 °FPassing clouds.3 mph51%30.07 "HgN/A
1:00 PM82 °FSunny.2 mph55%30.07 "Hg10 mi
12:30 PM82 °FSunny.2 mph55%30.07 "Hg10 mi
12:00 PM81 °FPassing clouds.3 mph58%30.07 "HgN/A
11:30 AM79 °FPassing clouds.3 mph61%30.07 "HgN/A
11:00 AM77 °FSunny.3 mph65%30.07 "Hg10 mi
10:30 AM75 °FPassing clouds.3 mph74%30.07 "HgN/A
10:00 AM73 °FPartly sunny.3 mph74%30.07 "HgN/A
9:30 AM70 °FPartly sunny.3 mph83%30.04 "HgN/A
9:00 AM70 °FPartly sunny.3 mph83%30.04 "Hg6 mi
8:30 AM68 °FPartly sunny.6 mph88%30.04 "Hg5 mi
8:00 AM66 °FPartly sunny.7 mph94%30.01 "Hg4 mi
7:30 AM66 °FPartly sunny.7 mph94%30.01 "Hg4 mi
7:00 AM64 °FFog.6 mph94%30.01 "Hg2 mi
6:30 AM64 °FFog.7 mph94%30.01 "Hg2 mi
6:00 AM64 °FFog.6 mph94%29.98 "Hg2 mi
5:00 AM63 °FFog.8 mph100%29.98 "Hg2 mi
Weather by CustomWeather, © 2015

See weather overviewHow to use our weather pages